[[{"header":{"parameterUnit":"m.s-1","parameterCategory":1,"la1":30.2992,"la2":30.254,"lo1":-89.0895,"lo2":-89.0443,"dy":0.0025,"dx":0.0025,"nx":19,"ny":19,"refTime":"2026-03-10T03:00:00:Z","depth":0,"parameterNumber":2,"parameterNumberName":"U-component_of_WINDS"},"data":[0,0,0,-1.0623,-1.0623,-1.0611,-1.0611,-1.0603,-1.0603,0,0,0,0,0,0,0,0,0,0,0,-1.0631,-1.0631,-1.0623,-1.0623,-1.0611,-1.0611,-1.0603,-1.0603,0,0,0,0,0,0,0,0,0,0,0,-1.0631,-1.0631,-1.0631,-1.0623,-1.0612,-1.0611,-1.0603,-1.0609,0,0,0,0,0,0,0,0,0,0,-1.0619,-1.0631,-1.0631,-1.0631,-1.0623,-1.0612,-1.0611,-1.061,-1.0609,-1.0611,0,-1.0615,0,-1.0609,-1.0603,-1.0603,0,0,0,-1.0619,-1.0632,-1.0625,-1.0631,-1.0623,-1.0612,-1.0616,-1.0609,-1.0609,-1.0611,-1.0615,-1.0615,-1.0609,-1.0603,-1.0603,-1.063,-1.063,0,0,-1.062,-1.0631,-1.0625,-1.0624,-1.0627,-1.0616,-1.0615,-1.0609,-1.0614,-1.0615,-1.0614,-1.0609,-1.0603,-1.0603,-1.063,-1.063,0,0,0,-1.0624,-1.0632,-1.0625,-1.0625,-1.0623,-1.0616,-1.0615,-1.0614,-1.0611,-1.0614,-1.0609,-1.0603,-1.0603,-1.0629,-1.063,-1.0655,0,0,0,-1.0624,-1.0634,-1.0625,-1.0632,-1.0623,-1.0619,-1.0621,-1.0612,-1.061,-1.0609,-1.0603,-1.0603,-1.0629,-1.0629,-1.0653,-1.0664,0,0,0,-1.063,-1.0635,-1.0635,-1.0633,-1.0628,-1.0618,-1.0615,-1.0611,-1.0607,-1.0603,-1.0603,-1.0629,-1.0629,-1.0652,-1.0662,-1.0674,0,0,0,-1.0639,-1.0658,-1.0636,-1.0654,-1.0629,-1.0635,-1.0614,-1.0618,-1.0618,-1.0603,-1.0629,-1.063,-1.0652,-1.0661,-1.0672,-1.0685,-1.0691,0,0,-1.0669,-1.0662,-1.0672,-1.0652,-1.0664,-1.0635,-1.0651,-1.064,-1.0629,-1.063,-1.063,-1.0654,-1.0662,-1.0673,-1.0726,-1.0731,0,0,0,-1.0685,-1.0692,-1.0693,-1.0693,-1.0685,-1.0679,-1.0664,-1.0659,-1.0659,-1.0632,-1.0661,-1.0666,-1.0672,-1.0677,-1.0682,-1.0685,-1.0633,-1.0633,-1.0633,-1.0743,-1.0728,-1.0743,-1.0726,-1.0727,-1.0711,-1.0709,-1.07,-1.0685,-1.0692,-1.0692,-1.0726,-1.0732,-1.0735,-1.0739,-1.0698,-1.0698,-1.0698,-1.0698,-1.0784,-1.0791,-1.0771,-1.0777,-1.0761,-1.0766,-1.0751,-1.074,-1.0742,-1.0725,-1.0729,-1.0711,-1.0742,-1.0744,-1.07,-1.07,-1.07,-1.0699,-1.0699,-1.0819,-1.082,-1.0815,-1.0812,-1.0812,-1.0795,-1.0797,-1.0783,-1.0769,-1.0773,-1.077,-1.077,-1.0766,-1.0773,-1.0773,-1.0773,-1.0774,-1.0774,-1.0774,-1.0858,-1.0851,-1.0855,-1.0847,-1.0845,-1.084,-1.0823,-1.082,-1.0813,-1.0801,-1.0801,-1.0784,-1.0748,-1.0738,-1.0775,-1.0775,-1.0775,-1.0775,-1.0775,-1.0903,-1.089,-1.0897,-1.0894,-1.0883,-1.0883,-1.0865,-1.0859,-1.0854,-1.0856,-1.0838,-1.0814,-1.0805,-1.0802,-1.0793,-1.0842,-1.0842,-1.0842,-1.0842,-1.0931,-1.0926,-1.0928,-1.0925,-1.092,-1.0904,-1.091,-1.0897,-1.0882,-1.0877,-1.0868,-1.0857,-1.0854,-1.0847,-1.0842,-1.0834,-1.0892,-1.0892,-1.0892,-1.0957,-1.0951,-1.0959,-1.0945,-1.0935,-1.0926,-1.0931,-1.0927,-1.0907,-1.0894,-1.0873,-1.0871,-1.0852,-1.0847,-1.0832,-1.0825,-1.081,0,0]},{"header":{"parameterUnit":"m.s-1","parameterCategory":1,"la1":30.2992,"la2":30.254,"lo1":-89.0895,"lo2":-89.0443,"dy":0.0025,"dx":0.0025,"nx":19,"ny":19,"refTime":"2026-03-10T03:00:00:Z","depth":0,"parameterNumber":3,"parameterNumberName":"V-component_of_WINDS"},"data":[0,0,0,3.553,3.553,3.5535,3.5535,3.5534,3.5534,0,0,0,0,0,0,0,0,0,0,0,3.5523,3.5523,3.553,3.553,3.5535,3.5535,3.5534,3.5534,0,0,0,0,0,0,0,0,0,0,0,3.5523,3.5523,3.5522,3.553,3.5535,3.5535,3.5534,3.5533,0,0,0,0,0,0,0,0,0,0,3.5529,3.5517,3.5523,3.5522,3.553,3.5535,3.5535,3.5533,3.5533,3.5528,0,3.5522,0,3.5528,3.5533,3.5533,0,0,0,3.5533,3.5517,3.5524,3.5522,3.553,3.5535,3.5534,3.5533,3.5533,3.5528,3.5522,3.5522,3.5528,3.5533,3.5533,3.5498,3.5497,0,0,3.5533,3.552,3.5524,3.5523,3.5522,3.5533,3.5534,3.5533,3.5525,3.5522,3.5522,3.5528,3.5533,3.5533,3.5498,3.5497,0,0,0,3.553,3.552,3.5527,3.5523,3.5525,3.5534,3.5534,3.5525,3.5529,3.5522,3.5528,3.5533,3.5533,3.5498,3.5498,3.5471,0,0,0,3.553,3.5518,3.5527,3.5519,3.5525,3.5525,3.5526,3.5529,3.5529,3.5528,3.5533,3.5533,3.5499,3.5498,3.5473,3.546,0,0,0,3.5524,3.5517,3.5517,3.5518,3.552,3.5525,3.5529,3.5529,3.5533,3.5533,3.5533,3.5499,3.5498,3.5474,3.5462,3.5449,0,0,0,3.5514,3.5489,3.5516,3.5491,3.552,3.5509,3.5529,3.5521,3.5518,3.5533,3.5498,3.5498,3.5474,3.5463,3.545,3.5436,3.5428,0,0,3.5476,3.5484,3.5471,3.5495,3.5477,3.5509,3.5488,3.5495,3.5505,3.55,3.5499,3.5472,3.5462,3.5449,3.5392,3.5386,0,0,0,3.5455,3.5445,3.5443,3.5442,3.545,3.5456,3.5469,3.5474,3.547,3.55,3.5464,3.5458,3.5451,3.5445,3.544,3.5436,3.5494,3.5494,3.5494,3.538,3.5399,3.538,3.54,3.5399,3.5416,3.5417,3.5426,3.5441,3.5433,3.5431,3.5394,3.5386,3.5382,3.5378,3.5424,3.5424,3.5424,3.5424,3.5327,3.5317,3.5345,3.5336,3.5357,3.5349,3.5367,3.538,3.5376,3.5395,3.539,3.5409,3.5375,3.5373,3.5422,3.5423,3.5423,3.5423,3.5423,3.528,3.5279,3.5287,3.5292,3.5293,3.5315,3.5312,3.533,3.5347,3.5342,3.5343,3.5344,3.5348,3.5342,3.5341,3.5341,3.5341,3.5341,3.5341,3.5228,3.5239,3.5235,3.5247,3.5251,3.5259,3.5281,3.5286,3.5296,3.5309,3.5309,3.5328,3.5369,3.5379,3.5339,3.5339,3.534,3.534,3.534,3.5167,3.5186,3.5179,3.5185,3.5203,3.5205,3.523,3.524,3.5247,3.5246,3.5267,3.5295,3.5303,3.5307,3.5316,3.5262,3.5262,3.5262,3.5262,3.5128,3.5136,3.5137,3.5145,3.5155,3.5179,3.5175,3.5194,3.5215,3.5222,3.5233,3.5246,3.5249,3.5256,3.5262,3.527,3.5206,3.5205,3.5205,3.5092,3.5104,3.5095,3.512,3.5137,3.5151,3.5149,3.5158,3.5186,3.5204,3.5228,3.523,3.5252,3.5258,3.5273,3.528,3.5296,0,0]}]]